This demonstration page uses our WeatherBlox Daily Observations layout. Learn more.

41.55636, -103.73856

Hourly Observations for March 27, 2019

Temp ( °F °C ) Dew Point ( °F °C ) Humidity (%) Winds ( mph kmh ) Pressure ( in mb ) Visibility ( mi km ) Precip ( " mm )
12:53 am 00:53 Clear 38 3.3 35 1.7 89 89 N 7 11 29.88 1012 10 16.09344 0 0
1:53 am 01:53 Clear 38 3.3 34 1.1 86 86 NNW 8 13 29.85 1011 10 16.09344 0 0
2:53 am 02:53 Clear 38 3.3 34 1.1 86 86 NW 6 9 29.85 1011 10 16.09344 0 0
3:53 am 03:53 Clear 38 3.3 32 0 79 79 NW 6 9 29.85 1011 10 16.09344 0 0
4:53 am 04:53 Clear 37 2.8 32 0 82 82 NW 5 7 29.88 1012 10 16.09344 0 0
5:53 am 05:53 Clear 38 3.3 32 0 79 79 undefined N/A 29.88 1012 10 16.09344 0 0
6:53 am 06:53 Sunny 38 3.3 32 0 79 79 NNW 8 13 29.91 1013 10 16.09344 0 0
7:53 am 07:53 Sunny 39 3.9 32 0 76 76 W 6 9 29.97 1015 10 16.09344 0 0
8:53 am 08:53 Sunny 46 7.8 36 2.2 68 68 WNW 9 15 29.97 1015 10 16.09344 0 0
9:53 am 09:53 Sunny 55 12.8 35 1.7 47 47 WNW 13 20 29.94 1014 10 16.09344 0 0
10:53 am 10:53 Sunny 60 15.6 35 1.7 39 39 WNW 9 15 29.94 1014 10 16.09344 0 0
11:53 am 11:53 Sunny 64 17.8 33 0.6 32 32 WNW 12 19 29.94 1014 10 16.09344 0 0
12:53 pm 12:53 Sunny 68 20 31 -0.6 25 25 WNW 12 19 29.91 1013 10 16.09344 0 0
1:53 pm 13:53 Sunny 70 21.1 32 0 25 25 NNW 10 17 29.88 1012 10 16.09344 0 0
2:53 pm 14:53 Sunny 71 21.7 30 -1.1 22 22 N 8 13 29.85 1011 10 16.09344 0 0
3:53 pm 15:53 Sunny 71 21.7 28 -2.2 20 20 ENE 7 11 29.85 1011 10 16.09344 0 0
4:53 pm 16:53 Sunny 68 20 35 1.7 30 30 ENE 13 20 29.85 1011 10 16.09344 0 0
5:53 pm 17:53 Sunny 66 18.9 37 2.8 34 34 ENE 12 19 29.88 1012 10 16.09344 0 0
6:53 pm 18:53 Sunny 57 13.9 37 2.8 47 47 NE 12 19 29.91 1013 10 16.09344 0 0
7:53 pm 19:53 Clear 52 11.1 38 3.3 59 59 ENE 9 15 29.94 1014 10 16.09344 0 0
8:53 pm 20:53 Clear 51 10.6 36 2.2 56 56 ENE 12 19 29.94 1014 10 16.09344 0 0
9:53 pm 21:53 Clear 49 9.4 37 2.8 64 64 SE 6 9 29.94 1014 10 16.09344 0 0
10:53 pm 22:53 Clear 49 9.4 39 3.9 69 69 E 13 20 29.91 1013 10 16.09344 0 0
11:53 pm 23:53 Partly Cloudy with Light Rain 50 10 40 4.4 68 68 ESE 10 17 29.88 1012 10 16.09344 0.001 0.001

Powered by AerisWeather